2020-03-21 00:08:17 r, 00.00m,0000564237Hz,0000000000c,0000000.000s, 026.1C,00002195
2020-03-21 00:18:17 r, 00.00m,0000564151Hz,0000000000c,0000000.000s, 026.1C,00002195
2020-03-21 00:28:19 r, 00.00m,0000564189Hz,0000000000c,0000000.000s, 025.7C,00002195
2020-03-21 00:38:17 r, 00.00m,0000564081Hz,0000000000c,0000000.000s, 025.4C,00002195
2020-03-21 00:48:17 r, 00.00m,0000563999Hz,0000000000c,0000000.000s, 024.4C,00002195
2020-03-21 00:58:20 r, 00.00m,0000563863Hz,0000000000c,0000000.000s, 024.1C,00002195
2020-03-21 01:08:17 r, 00.00m,0000563822Hz,0000000000c,0000000.000s, 023.8C,00002195
2020-03-21 01:18:17 r, 00.00m,0000563930Hz,0000000000c,0000000.000s, 024.4C,00002195
2020-03-21 01:28:17 r, 00.00m,0000563924Hz,0000000000c,0000000.000s, 024.1C,00002195
2020-03-21 01:38:17 r, 00.00m,0000563882Hz,0000000000c,0000000.000s, 023.8C,00002195
2020-03-21 01:48:17 r, 00.00m,0000563729Hz,0000000000c,0000000.000s, 023.8C,00002195
2020-03-21 01:58:18 r, 00.00m,0000563837Hz,0000000000c,0000000.000s, 023.5C,00002195
2020-03-21 02:08:17 r, 00.00m,0000563630Hz,0000000000c,0000000.000s, 023.2C,00002195
2020-03-21 02:18:20 r, 00.00m,0000563475Hz,0000000000c,0000000.000s, 022.5C,00002195
2020-03-21 02:28:18 r, 00.00m,0000563500Hz,0000000000c,0000000.000s, 022.2C,00002195
2020-03-21 02:38:17 r, 00.00m,0000563502Hz,0000000000c,0000000.000s, 021.9C,00002195
2020-03-21 02:48:17 r, 00.00m,0000563302Hz,0000000000c,0000000.000s, 021.5C,00002195
2020-03-21 02:58:19 r, 00.00m,0000563295Hz,0000000000c,0000000.000s, 020.9C,00002195
2020-03-21 03:08:17 r, 00.00m,0000563220Hz,0000000000c,0000000.000s, 020.3C,00002195
2020-03-21 03:18:17 r, 00.00m,0000563117Hz,0000000000c,0000000.000s, 019.6C,00002195
2020-03-21 03:28:17 r, 00.00m,0000563045Hz,0000000000c,0000000.000s, 019.3C,00002195
2020-03-21 03:38:18 r, 00.00m,0000562998Hz,0000000000c,0000000.000s, 019.0C,00002195
2020-03-21 03:48:20 r, 00.00m,0000563079Hz,0000000000c,0000000.000s, 018.6C,00002195
2020-03-21 03:58:17 r, 00.00m,0000549945Hz,0000000000c,0000000.000s, 018.0C,00002195
2020-03-21 04:08:19 r, 00.00m,0000432793Hz,0000000000c,0000000.000s, 017.7C,00002195
2020-03-21 04:18:17 r, 06.18m,0000301754Hz,0000000000c,0000000.000s, 017.0C,00002195
2020-03-21 04:28:19 r, 06.67m,0000191038Hz,0000000000c,0000000.000s, 016.4C,00002195
2020-03-21 04:38:18 r, 07.41m,0000096655Hz,0000000000c,0000000.000s, 015.7C,00002195
2020-03-21 04:48:20 r, 08.54m,0000034248Hz,0000000000c,0000000.000s, 015.1C,00002195
2020-03-21 04:58:17 r, 10.16m,0000007659Hz,0000000000c,0000000.000s, 014.8C,00002195
2020-03-21 05:08:17 r, 12.14m,0000001240Hz,0000000000c,0000000.000s, 014.1C,00002195
2020-03-21 05:18:17 r, 14.24m,0000000178Hz,0000000000c,0000000.000s, 014.1C,00002195
2020-03-21 05:28:17 r, 16.16m,0000000031Hz,0000015229c,0000000.033s, 013.8C,00002195
2020-03-21 05:38:18 r, 17.27m,0000000011Hz,0000042049c,0000000.091s, 013.5C,00002195
2020-03-21 05:48:17 r, 17.71m,0000000008Hz,0000063190c,0000000.137s, 013.5C,00002195
2020-03-21 05:58:20 r, 17.85m,0000000006Hz,0000072179c,0000000.157s, 013.5C,00002195
2020-03-21 06:08:17 r, 17.69m,0000000008Hz,0000062183c,0000000.135s, 013.2C,00002195
2020-03-21 06:18:18 r, 17.17m,0000000012Hz,0000038435c,0000000.083s, 013.2C,00002195
2020-03-21 06:28:18 r, 17.91m,0000000006Hz,0000075875c,0000000.165s, 013.2C,00002195
2020-03-21 06:38:19 r, 17.82m,0000000006Hz,0000070209c,0000000.152s, 012.8C,00002195
2020-03-21 06:48:17 r, 15.86m,0000000040Hz,0000011511c,0000000.025s, 012.8C,00002195
2020-03-21 06:58:18 r, 16.25m,0000000028Hz,0000016452c,0000000.036s, 012.8C,00002195
2020-03-21 07:08:20 r, 16.53m,0000000022Hz,0000021434c,0000000.047s, 013.2C,00002195
2020-03-21 07:18:17 r, 17.86m,0000000006Hz,0000072843c,0000000.158s, 013.2C,00002195
2020-03-21 07:28:19 r, 17.57m,0000000008Hz,0000055807c,0000000.121s, 013.2C,00002195
2020-03-21 07:38:18 r, 17.06m,0000000014Hz,0000034916c,0000000.076s, 012.8C,00002195
2020-03-21 07:48:19 r, 16.52m,0000000022Hz,0000021112c,0000000.046s, 012.8C,00002195
2020-03-21 07:58:17 r, 15.69m,0000000047Hz,0000009879c,0000000.021s, 012.8C,00002195
2020-03-21 08:08:19 r, 15.70m,0000000046Hz,0000009945c,0000000.022s, 013.2C,00002195
2020-03-21 08:18:17 r, 15.32m,0000000064Hz,0000007022c,0000000.015s, 013.2C,00002195
2020-03-21 08:28:20 r, 14.90m,0000000096Hz,0000004789c,0000000.010s, 013.5C,00002195
2020-03-21 08:38:18 r, 15.14m,0000000078Hz,0000005900c,0000000.013s, 013.8C,00002195
2020-03-21 08:48:18 r, 14.94m,0000000093Hz,0000004952c,0000000.011s, 013.8C,00002195
2020-03-21 08:58:18 r, 15.08m,0000000083Hz,0000005617c,0000000.012s, 013.8C,00002195
2020-03-21 09:08:18 r, 14.81m,0000000106Hz,0000004381c,0000000.010s, 014.1C,00002195
2020-03-21 09:18:18 r, 15.21m,0000000073Hz,0000006331c,0000000.014s, 014.1C,00002195
2020-03-21 09:28:18 r, 15.05m,0000000083Hz,0000005483c,0000000.012s, 014.1C,00002195
2020-03-21 09:38:20 r, 14.85m,0000000102Hz,0000004536c,0000000.010s, 014.1C,00002195
2020-03-21 09:48:18 r, 15.21m,0000000074Hz,0000006311c,0000000.014s, 014.1C,00002195
2020-03-21 09:58:20 r, 14.93m,0000000094Hz,0000004910c,0000000.011s, 014.1C,00002195
2020-03-21 10:08:18 r, 15.12m,0000000079Hz,0000005806c,0000000.013s, 014.1C,00002195
2020-03-21 10:18:18 r, 14.59m,0000000130Hz,0000000000c,0000000.000s, 014.1C,00002195
2020-03-21 10:28:18 r, 14.84m,0000000102Hz,0000004487c,0000000.010s, 014.5C,00002195
2020-03-21 10:38:18 r, 14.90m,0000000096Hz,0000004781c,0000000.010s, 014.5C,00002195
2020-03-21 10:48:18 r, 15.03m,0000000085Hz,0000005369c,0000000.012s, 014.5C,00002195
2020-03-21 10:58:18 r, 15.19m,0000000074Hz,0000006219c,0000000.013s, 014.5C,00002195
2020-03-21 11:08:19 r, 14.80m,0000000107Hz,0000004323c,0000000.009s, 014.5C,00002195
2020-03-21 11:18:18 r, 14.90m,0000000096Hz,0000004749c,0000000.010s, 014.5C,00002195
2020-03-21 11:28:19 r, 14.85m,0000000101Hz,0000004548c,0000000.010s, 014.1C,00002195
2020-03-21 11:38:18 r, 15.00m,0000000089Hz,0000005228c,0000000.011s, 014.1C,00002195
2020-03-21 11:48:18 r, 15.00m,0000000088Hz,0000005210c,0000000.011s, 014.1C,00002195
2020-03-21 11:58:18 r, 15.29m,0000000067Hz,0000006824c,0000000.015s, 014.1C,00002195
2020-03-21 12:08:20 r, 14.87m,0000000101Hz,0000004608c,0000000.010s, 014.1C,00002195
2020-03-21 12:18:18 r, 14.56m,0000000134Hz,0000000000c,0000000.000s, 013.8C,00002195
2020-03-21 12:28:18 r, 14.48m,0000000144Hz,0000000000c,0000000.000s, 013.8C,00002195
2020-03-21 12:38:18 r, 14.59m,0000000130Hz,0000000000c,0000000.000s, 013.8C,00002195
2020-03-21 12:48:18 r, 14.60m,0000000127Hz,0000003614c,0000000.008s, 014.1C,00002195
2020-03-21 12:58:20 r, 14.57m,0000000132Hz,0000000000c,0000000.000s, 014.1C,00002195
2020-03-21 13:08:18 r, 14.77m,0000000108Hz,0000004209c,0000000.009s, 014.1C,00002195
2020-03-21 13:18:18 r, 14.80m,0000000105Hz,0000004336c,0000000.009s, 014.1C,00002195
2020-03-21 13:28:18 r, 14.65m,0000000122Hz,0000003774c,0000000.008s, 014.1C,00002195
2020-03-21 13:38:19 r, 14.93m,0000000094Hz,0000004907c,0000000.011s, 014.1C,00002195
2020-03-21 13:48:18 r, 14.72m,0000000114Hz,0000004009c,0000000.009s, 014.1C,00002195
2020-03-21 13:58:19 r, 14.82m,0000000103Hz,0000004435c,0000000.010s, 014.1C,00002195
2020-03-21 14:08:18 r, 14.87m,0000000099Hz,0000004632c,0000000.010s, 014.1C,00002195
2020-03-21 14:18:18 r, 14.90m,0000000096Hz,0000004796c,0000000.010s, 014.1C,00002195
2020-03-21 14:28:18 r, 14.88m,0000000099Hz,0000004688c,0000000.010s, 014.5C,00002195
2020-03-21 14:38:18 r, 14.77m,0000000109Hz,0000004216c,0000000.009s, 014.5C,00002195
2020-03-21 14:48:18 r, 14.74m,0000000111Hz,0000004099c,0000000.009s, 014.5C,00002195
2020-03-21 14:58:18 r, 14.66m,0000000120Hz,0000003811c,0000000.008s, 014.5C,00002195
2020-03-21 15:08:18 r, 14.59m,0000000130Hz,0000000000c,0000000.000s, 014.5C,00002195
2020-03-21 15:18:18 r, 14.52m,0000000139Hz,0000000000c,0000000.000s, 014.5C,00002195
2020-03-21 15:28:18 r, 14.51m,0000000140Hz,0000000000c,0000000.000s, 014.5C,00002195
2020-03-21 15:38:19 r, 14.38m,0000000157Hz,0000000000c,0000000.000s, 014.8C,00002195
2020-03-21 15:48:18 r, 13.88m,0000000250Hz,0000000000c,0000000.000s, 015.1C,00002195
2020-03-21 15:58:18 r, 12.42m,0000000961Hz,0000000000c,0000000.000s, 015.1C,00002195
2020-03-21 16:08:20 r, 10.36m,0000006375Hz,0000000000c,0000000.000s, 015.1C,00002195
2020-03-21 16:18:18 r, 08.77m,0000027564Hz,0000000000c,0000000.000s, 014.8C,00002195
2020-03-21 16:28:18 r, 07.48m,0000090558Hz,0000000000c,0000000.000s, 014.8C,00002195
2020-03-21 16:38:20 r, 06.67m,0000191216Hz,0000000000c,0000000.000s, 015.1C,00002195
2020-03-21 16:48:18 r, 06.08m,0000328413Hz,0000000000c,0000000.000s, 015.1C,00002195
2020-03-21 16:58:20 r, 06.09m,0000325862Hz,0000000000c,0000000.000s, 015.1C,00002195
2020-03-21 17:08:18 r, 00.00m,0000492200Hz,0000000000c,0000000.000s, 015.1C,00002195
2020-03-21 17:18:18 r, 00.00m,0000562589Hz,0000000000c,0000000.000s, 015.1C,00002195
2020-03-21 17:28:18 r, 00.00m,0000562611Hz,0000000000c,0000000.000s, 015.1C,00002195
2020-03-21 17:38:18 r, 00.00m,0000562628Hz,0000000000c,0000000.000s, 015.1C,00002195
2020-03-21 17:48:18 r, 00.00m,0000562637Hz,0000000000c,0000000.000s, 015.4C,00002195
2020-03-21 17:58:18 r, 00.00m,0000562731Hz,0000000000c,0000000.000s, 015.7C,00002195
2020-03-21 18:08:18 r, 00.00m,0000562805Hz,0000000000c,0000000.000s, 016.4C,00002195
2020-03-21 18:18:18 r, 00.00m,0000562943Hz,0000000000c,0000000.000s, 016.7C,00002195
2020-03-21 18:28:18 r, 00.00m,0000562979Hz,0000000000c,0000000.000s, 017.0C,00002195
2020-03-21 18:38:18 r, 00.00m,0000563024Hz,0000000000c,0000000.000s, 017.4C,00002195
2020-03-21 18:48:18 r, 00.00m,0000563107Hz,0000000000c,0000000.000s, 017.7C,00002195
2020-03-21 18:58:18 r, 00.00m,0000563155Hz,0000000000c,0000000.000s, 018.0C,00002195
2020-03-21 19:08:20 r, 00.00m,0000563278Hz,0000000000c,0000000.000s, 019.0C,00002195
2020-03-21 19:18:18 r, 00.00m,0000563448Hz,0000000000c,0000000.000s, 019.9C,00002195
2020-03-21 19:28:20 r, 00.00m,0000563510Hz,0000000000c,0000000.000s, 020.9C,00002195
2020-03-21 19:38:18 r, 00.00m,0000563558Hz,0000000000c,0000000.000s, 021.2C,00002195
2020-03-21 19:48:18 r, 00.00m,0000563733Hz,0000000000c,0000000.000s, 021.9C,00002195
2020-03-21 19:58:18 r, 00.00m,0000563571Hz,0000000000c,0000000.000s, 021.2C,00002195
2020-03-21 20:08:18 r, 00.00m,0000563460Hz,0000000000c,0000000.000s, 020.3C,00002195
2020-03-21 20:18:20 r, 00.00m,0000563434Hz,0000000000c,0000000.000s, 019.9C,00002195
2020-03-21 20:28:18 r, 00.00m,0000563517Hz,0000000000c,0000000.000s, 019.9C,00002195
2020-03-21 20:38:20 r, 00.00m,0000563455Hz,0000000000c,0000000.000s, 020.3C,00002195
2020-03-21 20:48:18 r, 00.00m,0000563456Hz,0000000000c,0000000.000s, 020.6C,00002195
2020-03-21 20:58:18 r, 00.00m,0000563518Hz,0000000000c,0000000.000s, 020.9C,00002195
2020-03-21 21:08:20 r, 00.00m,0000563671Hz,0000000000c,0000000.000s, 021.2C,00002195
2020-03-21 21:18:18 r, 00.00m,0000563711Hz,0000000000c,0000000.000s, 021.9C,00002195
2020-03-21 21:28:18 r, 00.00m,0000563764Hz,0000000000c,0000000.000s, 023.2C,00002195
2020-03-21 21:38:18 r, 00.00m,0000564121Hz,0000000000c,0000000.000s, 024.8C,00002195
2020-03-21 21:48:19 r, 00.00m,0000564161Hz,0000000000c,0000000.000s, 025.7C,00002195
2020-03-21 21:58:18 r, 00.00m,0000564277Hz,0000000000c,0000000.000s, 026.4C,00002195
2020-03-21 22:08:19 r, 00.00m,0000564326Hz,0000000000c,0000000.000s, 027.0C,00002195
2020-03-21 22:18:18 r, 00.00m,0000564278Hz,0000000000c,0000000.000s, 027.3C,00002195
2020-03-21 22:28:18 r, 00.00m,0000564275Hz,0000000000c,0000000.000s, 027.7C,00002195
2020-03-21 22:38:18 r, 00.00m,0000564389Hz,0000000000c,0000000.000s, 028.0C,00002195
2020-03-21 22:48:20 r, 00.00m,0000564437Hz,0000000000c,0000000.000s, 028.0C,00002195
2020-03-21 22:58:18 r, 00.00m,0000564374Hz,0000000000c,0000000.000s, 028.0C,00002195
2020-03-21 23:08:20 r, 00.00m,0000564244Hz,0000000000c,0000000.000s, 027.3C,00002195
2020-03-21 23:18:18 r, 00.00m,0000564263Hz,0000000000c,0000000.000s, 027.0C,00002195
2020-03-21 23:28:18 r, 00.00m,0000564286Hz,0000000000c,0000000.000s, 027.3C,00002195
2020-03-21 23:38:20 r, 00.00m,0000564174Hz,0000000000c,0000000.000s, 027.0C,00002195
2020-03-21 23:48:19 r, 00.00m,0000564092Hz,0000000000c,0000000.000s, 026.4C,00002195
2020-03-21 23:58:20 r, 00.00m,0000564045Hz,0000000000c,0000000.000s, 026.4C,00002195
